Tracking 17784 objects as of 24-July-2016
HD Live streaming from Space Station
objects crossing your sky now

SDS-4

Track SDS-4 now!
10-day predictions
SDS-4 is classified as:


NORAD ID: 38339
Int'l Code: 2012-025C
Perigee: 663.6 km
Apogee: 672.8 km
Inclination: 98.4 °
Period: 98.0 minutes
Semi major axis: 7039 km
RCS: 0.47 m2 (medium)
Launch date: May 17, 2012
Source: Japan (JPN)
Launch site: TANEGASHIMA SPACE CENTER (TNSTA)
Your satellite tracking list
Your tracking list is empty





NASA's NSSDC Master Catalog

Two Line Element Set (TLE):
1 38339U 12025C   16205.93505662 +.00000098 +00000-0 +24915-4 0  9998
2 38339 098.3640 184.3370 0006594 227.1119 132.9533 14.70262293224281
Source of the keplerian elements: AFSPC

N2YO: 896